Location: Baaja
(6.7167°N, 10.9833°W)
Time: 09:19:44
(UTC+00:00)

Daily predictions for brighter satellites

Satellite Brightness Start Highest point End
(mag) Time Altitude Azimuth Time Altitude Azimuth Time Altitude Azimuth
FengYun 1-2 T 4.3 19:07:09 10° SSE 19:12:45 84° ENE 19:18:22 10° N
ASC 2 Rocket 3.4 19:13:09 10° SW 19:17:13 52° SSE 19:22:26 10° ENE
Cosmos 2056 Rocket 3.6 19:13:09 10° S 19:18:09 52° ESE 19:23:05 10° NNE
Meteor 1-5 Rocket 4.5 19:14:50 10° N 19:20:22 53° E 19:26:03 10° SSE
OAO 2 Rocket 3.8 19:15:22 10° WNW 19:20:37 63° SW 19:25:53 10° SE
H-2A ROCKET BODY 0.1 19:19:50 10° SW 19:21:40 60° SSE 19:24:51 10° ENE
ARIANE 5 DEB (SYLDA) 4.3 19:13:49 10° W 19:23:09 74° S 19:26:52 10° ESE
Cosmos 1862 Rocket 3.7 19:21:51 10° S 19:26:18 84° W 19:30:42 10° N
Cosmos 2242 Rocket 4.0 19:23:21 10° SSE 19:27:30 40° E 19:31:36 10° NNE
STARLINK-1160 4.5 19:24:18 10° NNW 19:28:03 34° NE 19:31:35 11° ESE
Cosmos 389 Rocket 2.9 19:24:53 10° SSE 19:28:05 38° E 19:31:18 10° NNE
Cosmos 1869 Rocket 4.0 19:25:38 10° NNW 19:29:53 65° W 19:34:10 10° S
Okean 1 4.3 19:28:27 10° SSE 19:31:53 27° E 19:35:20 10° NE
STARLINK-60 4.4 19:30:04 10° S 19:32:18 18° ESE 19:34:31 10° ENE
Cosmos 1939 Rocket 2.8 19:28:30 10° SSE 19:32:28 69° E 19:36:31 10° N
STARLINK-1170 4.3 19:29:10 10° NNW 19:33:03 39° NE 19:36:24 13° ESE
GPS 2-15 Rocket1 4.5 19:32:09 10° W 19:36:12 28° SSW 19:40:03 11° SE
NOSS 2-2 (E) 4.5 19:33:55 10° S 19:37:26 23° ESE 19:40:28 10° ENE
STARLINK-1150 4.0 19:34:04 10° NNW 19:38:02 46° NE 19:41:12 15° SE
Cosmos 1733 Rocket 3.7 19:34:39 10° NNE 19:38:32 33° E 19:42:23 10° SSE
Ariane H10-3 3.0 19:37:08 10° W 19:41:06 61° S 19:55:31 14° E
STARLINK-1151 3.8 19:38:59 10° NNW 19:43:01 54° NE 19:46:00 17° SE
CZ-4 R/B 1.6 19:40:43 10° S 19:44:51 77° WSW 19:49:03 10° NNW
Meteor 1-18 Rocket 4.4 19:42:01 10° SSE 19:47:18 47° E 19:52:37 10° NNE
STARLINK-1133 3.7 19:43:53 10° NNW 19:47:58 63° NE 19:50:46 19° SE
Cosmos 1420 Rocket 4.2 19:43:05 10° S 19:48:08 49° ESE 19:53:08 10° NNE
Cosmos 1452 Rocket 4.3 19:43:54 10° SSE 19:48:26 29° E 19:52:57 10° NE
CZ-2C R/B 4.3 19:45:56 16° ESE 19:48:40 24° ENE 19:52:59 10° NNE
Meteor 2-11 Rocket 4.5 19:42:52 10° N 19:48:49 58° E 19:54:46 10° SSE
Geosat 4.3 19:45:45 10° SSE 19:50:44 67° WSW 19:55:42 10° NNW
CSL-04 Debris 4.1 19:47:09 10° SSE 19:52:28 66° ENE 19:57:47 10° N
STARLINK-1139 3.5 19:48:49 10° NNW 19:52:55 74° NE 19:55:33 22° SE
CZ-2C R/B 3.4 19:50:28 10° NE 19:55:20 31° E 20:00:05 10° SSE
Cosmos 1461 2.6 19:51:34 10° SSW 19:55:23 61° ESE 19:59:19 10° NNE
CZ-2D R/B 3.8 19:51:49 10° S 19:55:37 59° WSW 19:59:25 10° NNW
Starlink 7 placeholder 2.8 19:55:16 10° SW 19:57:46 57° NW 20:00:04 10° NNE
STARLINK-1174 3.5 19:53:46 10° NNW 19:57:53 86° NE 20:00:19 24° SE
Cosmos 1703 Rocket 3.4 19:57:07 10° S 20:01:26 77° E 20:05:44 10° N
ARIANE 5 DEB (SYLDA) 3.3 19:56:38 10° W 20:01:36 65° S 20:03:36 27° ESE
NOSS 2-2 (C) 3.9 19:57:52 10° S 20:02:05 36° ESE 20:05:34 10° NE
USA 267 4.2 19:58:37 19° E 20:02:17 32° NE 20:07:57 10° N
STARLINK-1149 3.6 19:58:43 10° NW 20:02:50 82° SW 20:05:05 26° SSE
DELTA 2 R/B (1) 3.6 19:59:27 10° NW 20:05:00 80° SW 20:08:14 26° SE
HJ-1C 3.2 20:06:26 37° SSE 20:07:33 65° E 20:10:48 10° N
STARLINK-1180 3.8 20:03:43 10° NW 20:07:49 69° SW 20:09:53 28° SSE
Meteor 1-11 Rocket 3.9 20:02:36 10° NNW 20:08:05 70° W 20:13:34 10° S
GPS 2-14 Rocket1 2.6 20:03:59 10° WSW 20:08:10 84° SSE 20:10:11 29° ENE
Cosmos 1536 2.9 20:07:39 10° N 20:11:42 81° W 20:14:44 17° S
DMSP B5D2-2 4.2 20:07:33 10° NNE 20:12:39 52° ESE 20:17:37 10° S
STARLINK-1153 4.0 20:08:44 10° NW 20:12:47 59° SW 20:14:41 29° SSE
STARLINK-1132 4.3 20:13:45 10° NW 20:17:45 50° WSW 20:19:27 30° S
MOS 1 Rocket 2.9 20:13:31 10° NNE 20:17:46 73° E 20:21:26 14° S
Spelda 30 2.7 20:17:00 10° WSW 20:18:58 45° SSW 20:18:58 45° SSW
Cosmos 1666 3.4 20:16:20 10° NNW 20:20:01 52° W 20:22:40 18° SSW
Cosmos 1515 3.5 20:18:42 30° S 20:20:30 84° E 20:24:18 10° N
Cosmos 2278 Rocket 3.7 20:15:41 10° SW 20:20:50 37° WNW 20:26:00 10° N
Ariane H10+ 3.9 20:03:35 10° W 20:21:09 62° SSW 20:22:41 40° SE
Cosmos 44 Rocket 3.6 20:18:54 10° N 20:23:43 48° ENE 20:24:28 44° E
Centaur AC-42 2.7 20:24:22 10° WNW 20:28:32 78° SSW 20:33:01 33° ESE
Cosmos 371 Rocket 3.5 20:28:31 10° SSW 20:33:18 70° WNW 20:38:07 10° N
Ariane Rocket 3.0 20:33:00 55° ESE 20:33:38 60° ENE 20:38:36 10° N
Cosmos 1908 Rocket 3.7 20:29:41 10° N 20:33:41 57° ENE 20:33:41 57° ENE
ARIANE 3 DEB 2.8 20:28:10 10° W 20:34:31 75° S 20:34:31 75° S
STPSAT 2 (USA 217) 4.4 20:30:35 10° NNW 20:35:09 81° ENE 20:35:30 73° SE
SL-4 R/B 2.6 20:31:06 10° SW 20:35:20 61° NW 20:39:53 10° NNE
Centaur Rocket 3.6 20:28:10 10° WSW 20:37:21 63° NNW 20:38:25 45° NE
ARIANE DEB (SPELDA) 4.0 20:35:02 10° WSW 20:41:12 27° SSW 20:41:12 27° SSW
Cosmos 2034 Rocket 3.8 20:36:29 10° N 20:42:37 82° E 20:44:42 44° SSE
H-2A R/B 1.9 20:42:11 52° S 20:43:22 79° WSW 20:48:23 10° NNW
Milstar 3 Cent rocket 3.6 20:38:14 10° W 20:43:55 54° NNW 20:54:47 10° NE
MOS 1 4.1 20:55:09 77° ENE 20:55:09 77° ENE 21:00:50 10° N
Skynet4D Del rocket 4.4 20:47:15 10° SW 20:55:28 59° SSE 20:56:03 57° SE
DNEPR-1 R/B 4.5 20:52:34 10° NW 20:56:56 43° WSW 20:56:56 43° WSW
Aureole 1 Rocket 4.4 21:03:37 10° N 21:08:45 56° NE 21:08:45 56° NE
ATLAS 2AS CENTAUR RB 4.1 21:09:56 10° WSW 21:12:47 16° SW 21:12:47 16° SW
ARGOS 4.0 21:15:48 44° WSW 21:16:02 44° WSW 21:21:07 10° NNW
Spelda 4.3 21:11:41 10° W 21:25:57 49° SW 21:25:57 49° SW
USA 267 4.3 21:45:58 37° WSW 21:45:58 37° WSW 21:51:03 10° WNW
H-2A R/B 4.1 21:50:21 10° NNW 22:33:41 - ESE 21:52:06 28° NNW
